Flag for Germany

Past Weather in Hamburg, Hamburg, Germany — Yesterday and Last 2 Weeks

Now
57 °F

Clear.


Feels Like: 55 °F
Forecast: 63 / 53 °F
Wind: 12 mph from Southeast

Location: Hamburg-Fuhlsbuettel
Current Time: Oct 1, 2020 at 10:33:59 pm
Latest Report: Oct 1, 2020 at 9:20 pm
Visibility: 10 mi
Pressure29.56 "Hg
Humidity: 72%
Dew Point: 48 °F
Location of HamburgLocation

Past Weather in Hamburg — Graph

°F

Hamburg Temperature Yesterday

Maximum temperature yesterday: 66 °F (at 1:50 pm)
Minimum temperature yesterday: 54 °F (at 11:20 pm)
Average temperature yesterday: 59 °F

High & Low Weather Summary for the Past Weeks

 TemperatureHumidityPressure
High77 °F (Sep 22, 2:50 pm)100% (Sep 17, 4:50 am)30.45 "Hg (Sep 17, 4:50 am)
Low37 °F (Sep 18, 5:50 am)33% (Sep 20, 4:20 pm)29.27 "Hg (Sep 26, 9:50 pm)
Average56 °F77%29.88 "Hg
* Reported Sep 16 9:20 pm — Oct 1 9:20 pm, Hamburg. Weather by CustomWeather, © 2020

Note: Actual official high and low records may vary slightly from our data, if they occured in-between our weather recording intervals... More about our weather records

Hamburg Weather History for the Previous 24 Hours

Scroll right to see more
 ConditionsComfort  
Time TempWeatherWind HumidityBarometerVisibility
9:20 pm
Thu, Oct 1
57 °FClear.12 mph72%29.56 "Hg10 mi
8:50 pm57 °FPassing clouds.12 mph72%29.56 "HgN/A
8:20 pm57 °FClear.10 mph72%29.59 "Hg10 mi
7:50 pm57 °FClear.8 mph72%29.59 "Hg10 mi
7:20 pm59 °FPassing clouds.9 mph68%29.59 "HgN/A
6:50 pm61 °FPassing clouds.9 mph68%29.59 "HgN/A
6:20 pm61 °FPassing clouds.8 mph68%29.59 "HgN/A
5:50 pm63 °FSunny.13 mph59%29.59 "Hg10 mi
5:20 pm63 °FPassing clouds.14 mph64%29.59 "HgN/A
4:50 pm63 °FSunny.14 mph64%29.59 "Hg10 mi
4:20 pm63 °FPassing clouds.14 mph64%29.59 "HgN/A
3:50 pm64 °FPassing clouds.16 mph60%29.62 "HgN/A
3:20 pm64 °FPassing clouds.17 mph64%29.62 "HgN/A
2:50 pm64 °FPassing clouds.15 mph64%29.62 "HgN/A
2:20 pm64 °FPassing clouds.18 mph60%29.65 "HgN/A
1:50 pm63 °FPassing clouds.18 mph68%29.65 "HgN/A
1:20 pm63 °FPassing clouds.15 mph68%29.65 "HgN/A
12:50 pm63 °FPassing clouds.17 mph73%29.68 "HgN/A
12:20 pm63 °FPassing clouds.14 mph73%29.68 "HgN/A
11:50 am61 °FPassing clouds.15 mph77%29.71 "HgN/A
11:20 am61 °FPassing clouds.12 mph77%29.71 "HgN/A
10:50 am57 °FSunny.12 mph82%29.74 "Hg10 mi
10:20 am57 °FSunny.13 mph82%29.74 "Hg10 mi
9:50 am55 °FPassing clouds.12 mph88%29.74 "HgN/A
9:20 am54 °FPassing clouds.9 mph88%29.74 "HgN/A
8:50 am54 °FSunny.9 mph88%29.77 "Hg10 mi
8:20 am52 °FSunny.10 mph88%29.77 "Hg10 mi
7:50 am50 °FSunny.8 mph94%29.77 "Hg10 mi
7:20 am50 °FClear.9 mph94%29.77 "Hg10 mi
6:50 am50 °FClear.10 mph94%29.77 "Hg10 mi
6:20 am50 °FPassing clouds.8 mph94%29.77 "HgN/A
5:50 am50 °FClear.7 mph94%29.80 "Hg10 mi
5:20 am50 °FClear.8 mph94%29.80 "Hg10 mi
4:50 am50 °FClear.7 mph94%29.80 "Hg10 mi
4:20 am50 °FClear.7 mph94%29.83 "Hg10 mi
3:50 am50 °FClear.6 mph94%29.83 "Hg10 mi
3:20 am52 °FClear.6 mph94%29.83 "Hg10 mi
2:50 am52 °FPassing clouds.3 mph94%29.86 "HgN/A
2:20 am52 °FClear.6 mph94%29.86 "Hg10 mi
1:50 am52 °FClear.6 mph94%29.86 "Hg10 mi
1:20 am54 °FClear.7 mph94%29.86 "Hg10 mi
12:50 am54 °FClear.7 mph94%29.89 "Hg10 mi
12:20 am54 °FPassing clouds.5 mph94%29.89 "HgN/A
11:50 pm
Wed, Sep 30
54 °FClear.6 mph94%29.89 "Hg10 mi
11:20 pm54 °FClear.6 mph94%29.92 "Hg10 mi
10:50 pm55 °FClear.5 mph88%29.92 "Hg10 mi
10:20 pm55 °FClear.6 mph94%29.92 "Hg10 mi
Weather by CustomWeather, © 2020

See weather overview